| time (UTC) | temp F | wind direction | speed knots | gust knots | rain 1hr in | rain 24hr in | rain mn in | humidity % | barometer mb |
| 20260510095025 | 65 | 225 | 3.5 | 7.8 | 0.00 | 0.00 | 0.00 | 58 | 1009.2 |
| 20260510093745 | 65 | 225 | 3.5 | 7.8 | 0.00 | 0.00 | 0.00 | 58 | 1009.2 |
| 20260510092400 | 63 | 225 | 4.3 | 7.8 | 0.00 | 0.00 | 0.00 | 64 | 1009.5 |
| 20260510091026 | 63 | 225 | 4.3 | 7.8 | 0.00 | 0.00 | 0.00 | 64 | 1009.5 |
| 20260510085656 | 62 | 180 | 1.7 | 6.1 | 0.00 | 0.00 | 0.00 | 62 | 1009.9 |
| 20260510084305 | 62 | 180 | 1.7 | 6.1 | 0.00 | 0.00 | 0.00 | 62 | 1009.9 |
| 20260510082855 | 60 | 225 | 2.6 | 3.5 | 0.00 | 0.00 | 0.00 | 66 | 1010.1 |
| 20260510081545 | 60 | 225 | 2.6 | 3.5 | 0.00 | 0.00 | 0.00 | 66 | 1010.1 |
| 20260510080215 | 57 | 270 | 1.7 | 5.2 | 0.00 | 0.00 | 0.00 | 75 | 1010.7 |
| 20260510074855 | 57 | 270 | 1.7 | 5.2 | 0.00 | 0.00 | 0.00 | 75 | 1010.7 |
| 20260510073524 | 57 | 270 | 1.7 | 5.2 | 0.00 | 0.00 | 0.00 | 75 | 1010.7 |
| 20260510072125 | 57 | 270 | 1.7 | 5.2 | 0.00 | 0.00 | 0.00 | 75 | 1010.7 |
| 20260510070815 | 57 | 270 | 1.7 | 5.2 | 0.00 | 0.00 | 0.00 | 75 | 1010.7 |
| 20260510065455 | 56 | 270 | 1.7 | 2.6 | 0.00 | 0.00 | 0.00 | 77 | 1011.0 |
| 20260510064225 | 56 | 270 | 1.7 | 2.6 | 0.00 | 0.00 | 0.00 | 77 | 1011.0 |
| 20260510062739 | 54 | 180 | 0.9 | 2.6 | 0.00 | 0.00 | 0.00 | 82 | 1011.2 |
| 20260510061510 | 54 | 180 | 0.9 | 2.6 | 0.00 | 0.00 | 0.00 | 82 | 1011.2 |
| 20260510060115 | 49 | 315 | 2.6 | 5.2 | 0.00 | 0.00 | 0.00 | 92 | 1011.8 |
| 20260510054725 | 49 | 315 | 2.6 | 5.2 | 0.00 | 0.00 | 0.00 | 92 | 1011.8 |
| 20260510053319 | 48 | 0 | 1.7 | 2.6 | 0.00 | 0.00 | 0.00 | 95 | 1012.1 |
| 20260510052005 | 48 | 0 | 1.7 | 2.6 | 0.00 | 0.00 | 0.00 | 95 | 1012.1 |
| 20260510050610 | 48 | 0 | 1.7 | 2.6 | 0.00 | 0.00 | 0.00 | 95 | 1012.1 |
| 20260510045150 | 47 | 45 | 1.7 | 3.5 | 0.00 | 0.00 | 0.00 | 94 | 1012.3 |
| 20260510043929 | 47 | 45 | 1.7 | 3.5 | 0.00 | 0.00 | 0.00 | 94 | 1012.3 |
| 20260510042655 | 47 | 0 | 1.7 | 3.5 | 0.00 | 0.00 | 0.00 | 95 | 1012.4 |
| 20260510041435 | 47 | 0 | 1.7 | 3.5 | 0.00 | 0.00 | 0.00 | 95 | 1012.4 |
| 20260510040112 | 48 | 0 | 0.9 | 4.3 | 0.00 | 0.00 | 0.00 | 92 | 1012.7 |
| 20260510034750 | 48 | 0 | 0.9 | 4.3 | 0.00 | 0.00 | 0.00 | 92 | 1012.7 |
| 20260510033405 | 48 | 0 | 2.6 | 3.5 | 0.00 | 0.00 | 0.00 | 92 | 1012.6 |
| 20260510032055 | 48 | 0 | 2.6 | 3.5 | 0.00 | 0.00 | 0.00 | 92 | 1012.6 |
| 20260510030630 | 48 | 0 | 2.6 | 3.5 | 0.00 | 0.00 | 0.00 | 92 | 1012.6 |
| 20260510025343 | 48 | 0 | 1.7 | 4.3 | 0.00 | 0.00 | 0.00 | 92 | 1012.8 |
| 20260510023959 | 48 | 0 | 1.7 | 4.3 | 0.00 | 0.00 | 0.00 | 92 | 1012.8 |
| 20260510022650 | 49 | 0 | 2.6 | 3.5 | 0.00 | 0.00 | 0.00 | 89 | 1012.7 |
| 20260510021239 | 49 | 0 | 2.6 | 3.5 | 0.00 | 0.00 | 0.00 | 89 | 1012.7 |
| 20260510015940 | 51 | 0 | 1.7 | 2.6 | 0.00 | 0.00 | 0.00 | 83 | 1012.7 |
| 20260510014604 | 51 | 0 | 1.7 | 2.6 | 0.00 | 0.00 | 0.00 | 83 | 1012.7 |
| 20260510013320 | 52 | 0 | 0.9 | 2.6 | 0.00 | 0.00 | 0.00 | 81 | 1012.4 |
| 20260510011947 | 52 | 0 | 0.9 | 2.6 | 0.00 | 0.00 | 0.00 | 81 | 1012.4 |
| 20260510010512 | 51 | 0 | 2.6 | 4.3 | 0.00 | 0.00 | 0.00 | 83 | 1012.6 |
| 20260510005200 | 51 | 0 | 2.6 | 4.3 | 0.00 | 0.00 | 0.00 | 83 | 1012.6 |
| 20260510003730 | 51 | 0 | 2.6 | 4.3 | 0.00 | 0.00 | 0.00 | 83 | 1012.6 |
| 20260510002339 | 54 | 315 | 1.7 | 4.3 | 0.00 | 0.00 | 0.00 | 75 | 1012.7 |
| 20260510001025 | 54 | 315 | 1.7 | 4.3 | 0.00 | 0.00 | 0.00 | 75 | 1012.7 |
| 20260509235705 | 52 | 0 | 3.5 | 5.2 | 0.00 | 0.00 | 0.00 | 82 | 1013.0 |
| 20260509234313 | 52 | 0 | 3.5 | 5.2 | 0.00 | 0.00 | 0.00 | 82 | 1013.0 |
| 20260509233030 | 52 | 0 | 2.6 | 4.3 | 0.00 | 0.00 | 0.00 | 80 | 1013.3 |
| 20260509231645 | 52 | 0 | 2.6 | 4.3 | 0.00 | 0.00 | 0.00 | 80 | 1013.3 |
| 20260509230340 | 54 | 0 | 1.7 | 3.5 | 0.00 | 0.00 | 0.00 | 75 | 1013.1 |
| 20260509224854 | 54 | 0 | 1.7 | 3.5 | 0.00 | 0.00 | 0.00 | 75 | 1013.1 |
| 20260509223420 | 58 | 90 | 1.7 | 3.5 | 0.00 | 0.00 | 0.00 | 65 | 1012.6 |
| 20260509222135 | 58 | 90 | 1.7 | 3.5 | 0.00 | 0.00 | 0.00 | 65 | 1012.6 |
| 20260509220810 | 58 | 90 | 1.7 | 3.5 | 0.00 | 0.00 | 0.00 | 65 | 1012.6 |
| 20260509215504 | 60 | 0 | 0.9 | 8.7 | 0.00 | 0.00 | 0.00 | 59 | 1012.4 |
| 20260509214055 | 60 | 0 | 0.9 | 8.7 | 0.00 | 0.00 | 0.00 | 59 | 1012.4 |
| 20260509212810 | 63 | 45 | 4.3 | 8.7 | 0.00 | 0.00 | 0.00 | 53 | 1012.2 |
| 20260509211539 | 63 | 45 | 4.3 | 8.7 | 0.00 | 0.00 | 0.00 | 53 | 1012.2 |
| 20260509210210 | 63 | 0 | 5.2 | 10.4 | 0.00 | 0.00 | 0.00 | 52 | 1012.2 |
| 20260509204932 | 63 | 0 | 5.2 | 10.4 | 0.00 | 0.00 | 0.00 | 52 | 1012.2 |
| 20260509203600 | 57 | 0 | 4.3 | 6.1 | 0.00 | 0.00 | 0.00 | 69 | 1012.7 |
| 20260509202220 | 57 | 0 | 4.3 | 6.1 | 0.00 | 0.00 | 0.00 | 69 | 1012.7 |
| 20260509200827 | 57 | 0 | 4.3 | 6.1 | 0.00 | 0.00 | 0.00 | 69 | 1012.7 |
| 20260509195535 | 59 | 0 | 3.5 | 5.2 | 0.00 | 0.00 | 0.00 | 70 | 1012.6 |
| 20260509194130 | 59 | 0 | 3.5 | 5.2 | 0.00 | 0.00 | 0.00 | 70 | 1012.6 |
| 20260509192740 | 62 | 0 | 1.7 | 2.6 | 0.00 | 0.00 | 0.00 | 63 | 1012.2 |
| 20260509191330 | 62 | 0 | 1.7 | 2.6 | 0.00 | 0.00 | 0.00 | 63 | 1012.2 |
| 20260509185949 | 67 | 0 | 0.0 | 2.6 | 0.00 | 0.00 | 0.00 | 50 | 1011.6 |
| 20260509184627 | 67 | 0 | 0.0 | 2.6 | 0.00 | 0.00 | 0.00 | 50 | 1011.6 |
| 20260509183315 | 74 | 0 | 0.0 | 2.6 | 0.00 | 0.00 | 0.00 | 38 | 1011.1 |
| 20260509181935 | 74 | 0 | 0.0 | 2.6 | 0.00 | 0.00 | 0.00 | 38 | 1011.1 |
| 20260509180630 | 74 | 0 | 0.0 | 2.6 | 0.00 | 0.00 | 0.00 | 38 | 1011.1 |
| 20260509175306 | 74 | 180 | 1.7 | 7.8 | 0.00 | 0.00 | 0.00 | 32 | 1011.3 |
| 20260509174000 | 74 | 180 | 1.7 | 7.8 | 0.00 | 0.00 | 0.00 | 32 | 1011.3 |
| 20260509172542 | 73 | 135 | 1.7 | 7.8 | 0.00 | 0.00 | 0.00 | 33 | 1011.4 |
| 20260509171145 | 73 | 135 | 1.7 | 7.8 | 0.00 | 0.00 | 0.00 | 33 | 1011.4 |
| 20260509165913 | 72 | 45 | 5.2 | 9.6 | 0.00 | 0.00 | 0.00 | 36 | 1011.6 |
| 20260509164500 | 72 | 45 | 5.2 | 9.6 | 0.00 | 0.00 | 0.00 | 36 | 1011.6 |
| 20260509163110 | 73 | 90 | 5.2 | 9.6 | 0.00 | 0.00 | 0.00 | 32 | 1011.9 |
| 20260509161755 | 73 | 90 | 5.2 | 9.6 | 0.00 | 0.00 | 0.00 | 32 | 1011.9 |
| 20260509160500 | 73 | 45 | 3.5 | 9.6 | 0.00 | 0.00 | 0.00 | 29 | 1012.4 |
| 20260509155152 | 73 | 45 | 3.5 | 9.6 | 0.00 | 0.00 | 0.00 | 29 | 1012.4 |
| 20260509153917 | 73 | 45 | 3.5 | 9.6 | 0.00 | 0.00 | 0.00 | 29 | 1012.4 |
| 20260509152619 | 73 | 135 | 3.5 | 9.6 | 0.00 | 0.00 | 0.00 | 28 | 1012.8 |
| 20260509151212 | 73 | 135 | 3.5 | 9.6 | 0.00 | 0.00 | 0.00 | 28 | 1012.8 |
| 20260509145828 | 71 | 90 | 5.2 | 9.6 | 0.00 | 0.00 | 0.00 | 33 | 1013.2 |
| 20260509144510 | 71 | 90 | 5.2 | 9.6 | 0.00 | 0.00 | 0.00 | 33 | 1013.2 |
| 20260509143105 | 71 | 90 | 3.5 | 8.7 | 0.00 | 0.00 | 0.00 | 32 | 1013.7 |
| 20260509141800 | 71 | 90 | 3.5 | 8.7 | 0.00 | 0.00 | 0.00 | 32 | 1013.7 |
| 20260509140420 | 70 | 90 | 6.1 | 10.4 | 0.00 | 0.00 | 0.00 | 38 | 1014.0 |
| 20260509135215 | 70 | 90 | 6.1 | 10.4 | 0.00 | 0.00 | 0.00 | 38 | 1014.0 |
| 20260509133920 | 70 | 90 | 6.1 | 10.4 | 0.00 | 0.00 | 0.00 | 38 | 1014.0 |
| 20260509132645 | 70 | 90 | 6.1 | 9.6 | 0.00 | 0.00 | 0.00 | 40 | 1014.3 |
| 20260509131245 | 70 | 90 | 6.1 | 9.6 | 0.00 | 0.00 | 0.00 | 40 | 1014.3 |
| 20260509130010 | 70 | 45 | 5.2 | 9.6 | 0.00 | 0.00 | 0.00 | 44 | 1014.7 |
| 20260509124650 | 70 | 45 | 5.2 | 9.6 | 0.00 | 0.00 | 0.00 | 44 | 1014.7 |
| 20260509123220 | 70 | 135 | 3.5 | 7.8 | 0.00 | 0.00 | 0.00 | 48 | 1015.0 |
| 20260509121915 | 70 | 135 | 3.5 | 7.8 | 0.00 | 0.00 | 0.00 | 48 | 1015.0 |
| 20260509120547 | 65 | 180 | 1.7 | 6.1 | 0.00 | 0.00 | 0.00 | 57 | 1016.3 |
| 20260509115055 | 65 | 180 | 1.7 | 6.1 | 0.00 | 0.00 | 0.00 | 57 | 1016.3 |
| 20260509113825 | 65 | 180 | 1.7 | 6.1 | 0.00 | 0.00 | 0.00 | 57 | 1016.3 |
| 20260509112400 | 65 | 180 | 1.7 | 6.1 | 0.00 | 0.00 | 0.00 | 57 | 1016.3 |
| 20260509110955 | 65 | 180 | 1.7 | 6.1 | 0.00 | 0.00 | 0.00 | 57 | 1016.3 |
| 20260509105605 | 65 | 180 | 1.7 | 6.1 | 0.00 | 0.00 | 0.00 | 57 | 1016.3 |
| 20260509104258 | 65 | 180 | 1.7 | 6.1 | 0.00 | 0.00 | 0.00 | 57 | 1016.3 |
| 20260509102920 | 65 | 270 | 1.7 | 6.1 | 0.00 | 0.00 | 0.00 | 62 | 1016.5 |
| 20260509101505 | 65 | 270 | 1.7 | 6.1 | 0.00 | 0.00 | 0.00 | 62 | 1016.5 |
| 20260509100150 | 63 | 270 | 2.6 | 7.0 | 0.00 | 0.00 | 0.00 | 62 | 1016.9 |